SWARM A (39452 NORAD) Tracking and Keplerian Element Data

This shows tracking and keplerian element data for the satellite.

Feedback or suggestion? Click here.




ElementValue
Catalog39452
NameSWARM A
Epoch Orbit26064
Epoch Day195.9314806
Epoch Year2018
RAAN27.261
Inclination87.3457
Eccentricity0.000236
Argument of Perigee96.0281
Mean Anonmoly264.1244
Mean Motion15.43212874
Decay Rate8.9E-06
L11 39452U 13067B 18195.93148060 .00000890 00000-0 19015-4 0 9992
L22 39452 87.3457 27.2610 0002360 96.0281 264.1244 15.43212874260642

Live tracking and technical data element details for SWARM A (NORAD 39452). SWARM A can be tracked NOW for your location showing map with azimuth and elevation plus other details from your city location.

Track the satellite on the map from your city or location and see movement details for azimuth, elevation, latitude, longitude, range, height, and movement on the map or in text.







IsCatalogInMostPopularTable: catalog: 39452, numindb: 66
Update: records affected: 1



GetName: 39452 SWARM A

Hit Count: updated at: Sun, 15 Jul 2018 22:58:27 GMT